Location: Carnières
(50.1682°N, 3.3474°E)
Time: 21:28:48
(UTC+00:00)

SL-16 R/B - Pass Details

Date: 13 August 2024
Orbit: 842 x 845 km, 71.0° (Epoch: 10 September)

Event Time Altitude Azimuth Distance (km) Brightness Sun altitude
Exits shadow 00:13:50 46° 249° (WSW) 1,119 2.6 -25.1°
Maximum altitude 00:15:17 62° 303° (WNW) 952 2.5 -25.0°
Drops below altitude 10° 00:20:55 10° 25° (NNE) 2,477 5.6 -24.9°
Sets 00:23:25 0° 29° (NNE) 3,416 6.5 -24.9°
